| time (UTC) | temp F | wind direction | speed knots | gust knots | rain 1hr in | rain 24hr in | rain mn in | humidity % | barometer mb |
| 20260502193215 | 56 | 175 | 0.0 | 0.0 | 0.00 | 0.00 | 0.00 | 66 | 1014.9 |
| 20260502190217 | 60 | 175 | 0.0 | 0.0 | 0.00 | 0.00 | 0.00 | 60 | 1014.7 |
| 20260502183210 | 65 | 175 | 0.0 | 0.0 | 0.00 | 0.00 | 0.00 | 52 | 1014.5 |
| 20260502180211 | 72 | 175 | 0.0 | 0.0 | 0.00 | 0.00 | 0.00 | 38 | 1014.4 |
| 20260502170210 | 76 | 175 | 0.0 | 0.0 | 0.00 | 0.00 | 0.00 | 31 | 1014.7 |
| 20260502163210 | 76 | 175 | 0.0 | 0.0 | 0.00 | 0.00 | 0.00 | 30 | 1015.0 |
| 20260502160213 | 76 | 175 | 0.0 | 0.0 | 0.00 | 0.00 | 0.00 | 28 | 1015.4 |
| 20260502150210 | 77 | 175 | 0.0 | 0.0 | 0.00 | 0.00 | 0.00 | 29 | 1016.0 |
| 20260502130210 | 76 | 198 | 0.9 | 0.0 | 0.00 | 0.00 | 0.00 | 27 | 1017.7 |
| 20260502123210 | 75 | 198 | 5.2 | 0.0 | 0.00 | 0.00 | 0.00 | 29 | 1017.9 |
| 20260502120210 | 74 | 198 | 1.7 | 0.0 | 0.00 | 0.00 | 0.00 | 34 | 1018.4 |
| 20260502113211 | 75 | 207 | 0.9 | 0.0 | 0.00 | 0.00 | 0.00 | 33 | 1018.9 |
| 20260502110210 | 73 | 201 | 2.6 | 0.0 | 0.00 | 0.00 | 0.00 | 34 | 1019.2 |
| 20260502103210 | 72 | 207 | 3.5 | 0.0 | 0.00 | 0.00 | 0.00 | 34 | 1019.5 |
| 20260502100210 | 71 | 209 | 3.5 | 0.0 | 0.00 | 0.00 | 0.00 | 42 | 1019.9 |
| 20260502090210 | 68 | 218 | 2.6 | 0.0 | 0.00 | 0.00 | 0.00 | 45 | 1020.5 |
| 20260502070213 | 51 | 75 | 0.0 | 0.0 | 0.00 | 0.00 | 0.00 | 66 | 1021.2 |
| 20260502063212 | 46 | 75 | 0.0 | 0.0 | 0.00 | 0.00 | 0.00 | 75 | 1021.3 |
| 20260502060210 | 40 | 75 | 0.0 | 0.0 | 0.00 | 0.00 | 0.00 | 86 | 1021.3 |
| 20260502053210 | 37 | 75 | 0.0 | 0.0 | 0.00 | 0.00 | 0.00 | 88 | 1021.3 |
| 20260502050211 | 36 | 75 | 0.0 | 0.0 | 0.00 | 0.00 | 0.00 | 87 | 1021.2 |
| 20260502043211 | 35 | 71 | 0.0 | 0.0 | 0.00 | 0.00 | 0.00 | 86 | 1021.1 |
| 20260502040212 | 35 | 71 | 0.0 | 0.0 | 0.00 | 0.00 | 0.00 | 85 | 1021.0 |
| 20260502033211 | 36 | 71 | 0.0 | 0.0 | 0.00 | 0.00 | 0.00 | 85 | 1021.1 |
| 20260502030211 | 37 | 71 | 0.0 | 0.0 | 0.00 | 0.00 | 0.00 | 83 | 1021.1 |
| 20260502023214 | 38 | 71 | 0.0 | 0.0 | 0.00 | 0.00 | 0.00 | 82 | 1021.1 |
| 20260502020212 | 38 | 71 | 0.0 | 0.0 | 0.00 | 0.00 | 0.00 | 81 | 1021.2 |
| 20260502013211 | 40 | 71 | 0.0 | 0.0 | 0.00 | 0.00 | 0.00 | 79 | 1021.3 |
| 20260502010211 | 41 | 71 | 0.0 | 0.0 | 0.00 | 0.00 | 0.00 | 77 | 1021.3 |
| 20260502003209 | 42 | 71 | 0.0 | 0.0 | 0.00 | 0.00 | 0.00 | 75 | 1021.4 |
| 20260502000211 | 42 | 71 | 0.0 | 0.0 | 0.00 | 0.00 | 0.00 | 74 | 1021.6 |
| 20260501233210 | 43 | 71 | 0.0 | 0.0 | 0.00 | 0.00 | 0.00 | 73 | 1021.7 |
| 20260501230210 | 44 | 71 | 0.0 | 0.0 | 0.00 | 0.00 | 0.00 | 72 | 1021.7 |
| 20260501223210 | 45 | 71 | 0.0 | 0.0 | 0.00 | 0.00 | 0.00 | 69 | 1021.8 |
| 20260501220211 | 47 | 71 | 0.0 | 0.0 | 0.00 | 0.00 | 0.00 | 66 | 1021.8 |
| 20260501213210 | 49 | 71 | 0.0 | 0.0 | 0.00 | 0.00 | 0.00 | 63 | 1021.9 |
| 20260501210210 | 51 | 71 | 0.0 | 0.0 | 0.00 | 0.00 | 0.00 | 58 | 1021.9 |
| 20260501203209 | 54 | 71 | 5.2 | 0.0 | 0.00 | 0.00 | 0.00 | 52 | 1021.9 |
| 20260501200211 | 56 | 27 | 0.0 | 0.0 | 0.00 | 0.00 | 0.00 | 49 | 1021.8 |